Wetbulb
52.52 52.07 51.27 50.85 50.05 50.94 51.76 51.95 52.67 53.55 53.81 53.33 53.39 52.46 52.58 52.53 52.40 49.07 49.80 49.59 49.48 50.08 50.55 51.45 53.71 54.63 54.76 54.64 52.24 52.53 50.87 49.99 46.53 48.40 48.95 50.65 49.31 47.95 48.51 48.69 49.23 51.80 52.75
51.38 50.20 49.70 48.58 49.49 49.85 50.11 49.07 50.94 51.80 51.73 50.19 49.87 49.12 48.48 48.55 49.14 49.39 47.55 47.40 47.36 48.77 52.80 53.78 53.19 53.34 53.75 54.28 53.20 51.90 50.60 51.06 48.71 45.91 49.39 49.51 48.59 48.79 48.59 48.92 50.32 51.39 51.62
49.03 47.96 47.58 48.36 48.43 48.71 47.70 48.60 47.75 48.70 49.45 49.05 49.47 47.91 46.86 48.02 48.16 48.35 47.95 48.09 47.37 49.71 51.87 52.61 52.32 52.63 51.96 52.29 51.91 51.32 49.43 48.42 48.52 47.30 48.13 49.93 48.48 48.09 47.03 49.26 49.87 50.90 51.75
47.93 47.11 47.55 47.75 48.11 48.13 47.90 48.09 48.53 47.17 46.55 48.67 47.65 47.82 49.34 49.90 50.32 50.73 50.79 50.64 50.18 49.57 51.53 52.81 53.03 52.64 52.30 52.79 52.42 52.18 49.70 48.51 49.17 48.92 48.67 48.56 48.35 47.10 46.80 47.04 48.66 51.32 50.48
46.90 47.93 47.57 47.45 47.70 46.90 48.03 46.88 47.41 48.25 47.45 47.54 47.82 49.42 50.34 50.30 48.09 48.57 48.62 49.91 49.97 51.58 52.43 52.67 53.10 51.67 50.66 51.45 51.83 51.00 50.37 49.02 48.74 48.78 48.17 47.03 46.41 45.08 46.80 49.80 48.14 49.69 51.79
48.07 47.36 47.32 47.63 46.96 47.10 46.80 47.63 47.03 46.75 47.21 47.88 47.81 47.97 47.51 47.18 46.35 47.47 49.41 50.51 50.47 50.56 50.51 51.44 52.30 50.85 51.23 50.30 50.65 51.32 50.61 49.21 48.49 48.99 47.59 48.74 47.72 48.63 50.28 49.30 48.70 47.86 47.34
48.58 47.71 47.72 47.90 46.21 46.50 48.15 48.55 48.19 47.55 49.26 48.00 46.90 47.19 48.21 48.66 45.30 45.64 47.08 50.32 49.33 48.35 48.98 50.16 49.04 49.22 49.51 50.09 49.50 49.42 49.47 49.11 49.47 52.42 50.54 49.62 49.57 50.32 51.30 49.98 49.51 49.26 49.13
47.48 47.40 48.15 48.51 46.18 46.43 47.31 47.12 47.62 47.92 47.32 47.94 48.22 49.04 48.43 47.59 45.68 45.03 46.68 48.89 48.17 47.73 47.39 47.85 48.45 49.77 49.24 49.37 49.03 48.58 50.60 51.55 52.11 52.81 53.88 52.93 52.85 52.98 51.56 50.58 49.94 51.10 53.28
46.48 47.23 48.03 48.82 46.42 47.69 46.11 46.17 46.82 47.45 47.36 47.46 47.34 47.21 46.96 47.14 44.81 44.49 46.94 47.64 47.76 46.46 47.19 48.16 49.20 48.95 45.05 46.10 51.74 50.78 51.47 51.75 48.67 47.93 47.81 47.16 46.12 45.80 47.18 51.47 51.50 50.03 49.57
46.69 47.20 48.17 47.94 48.39 48.23 46.89 46.28 47.17 47.96 47.86 48.27 48.39 48.57 47.87 48.28 44.02 43.52 46.78 48.56 48.08 47.43 48.40 48.17 45.13 47.77 42.60 43.75 52.16 51.43 49.98 50.44 51.01 52.18 53.65 50.76 48.68 51.82 47.58 51.01 49.83 49.45 50.23
48.17 48.21 48.47 48.97 47.66 48.00 47.78 46.69 47.85 49.39 49.67 48.74 48.76 49.28 48.96 46.53 47.64 43.03 43.92 50.98 50.30 50.45 47.79 51.73 51.38 42.91 41.93 41.86 44.29 52.15 49.65 50.31 51.45 52.57 51.33 51.08 52.06 52.98 53.07 53.82 53.88 52.02 50.60
49.49 48.69 48.97 49.43 48.42 47.82 47.72 48.77 50.92 50.55 50.86 49.10 49.35 48.98 49.30 50.35 45.32 43.99 42.37 43.82 47.48 50.76 50.30 51.50 50.59 41.96 42.00 42.19 45.74 42.01 42.17 43.97 53.82 51.43 52.45 53.50 50.84 53.76 54.75 55.00 55.18 54.74 54.17
49.09 49.29 48.94 49.43 48.15 48.24 50.00 50.89 51.31 51.00 49.10 48.97 50.24 51.19 51.33 52.22 53.34 45.53 43.87 43.37 44.83 52.49 52.49 47.46 43.19 42.45 42.37 45.46 42.67 42.27 41.69 54.43 54.32 54.06 53.71 54.07 54.30 55.35 55.02 56.23 57.07 56.89 56.00
50.13 50.54 49.31 49.92 49.82 49.50 51.75 49.47 50.30 51.32 50.56 49.27 49.24 48.38 49.40 50.70 50.11 52.16 51.92 53.60 49.00 51.97 50.71 53.25 47.98 46.66 44.65 47.95 52.30 52.61 55.19 54.77 53.01 52.77 53.94 55.33 55.66 55.76 55.40 55.47 54.13 54.11 53.81
50.76 51.35 51.99 52.47 52.69 51.61 52.44 50.36 52.06 52.49 47.83 47.17 47.45 49.56 47.58 47.84 45.16 41.02 43.82 50.39 52.48 47.05 50.48 52.50 51.67 51.53 51.74 51.92 52.41 52.65 52.80 53.09 52.52 53.32 53.96 54.99 55.28 53.05 51.93 53.58 52.76 52.69 51.89
51.55 51.15 49.47 49.82 52.71 53.25 53.55 53.94 42.15 41.12 40.98 38.65 37.78 42.81 48.25 39.25 38.24 38.35 37.87 37.69 38.09 39.53 50.35 49.40 49.14 49.54 49.30 49.57 50.10 50.61 51.51 50.59 51.57 52.24 53.64 54.46 53.08 51.69 51.39 51.67 51.81 51.30 50.59
52.04 51.34 51.78 52.08 53.83 51.65 52.45 52.39 51.97 47.09 41.22 39.57 38.50 38.01 37.44 36.28 37.04 37.29 37.81 38.13 37.94 43.11 48.46 48.11 47.61 47.86 47.91 48.73 49.10 49.55 49.68 50.62 52.24 51.99 52.09 52.12 52.20 51.95 51.07 50.56 50.44 50.31 49.73
53.60 45.23 54.22 54.02 53.84 53.85 53.43 53.09 52.37 50.18 48.86 48.89 42.38 40.47 38.24 37.34 37.07 37.11 37.19 41.55 46.51 45.51 46.39 46.12 46.31 47.10 47.46 47.84 48.41 48.87 49.72 50.25 50.80 51.29 51.36 51.43 51.53 51.16 50.54 49.93 49.84 48.92 48.99
52.12 53.67 53.14 54.06 54.77 52.77 54.37 53.64 51.92 50.96 49.79 48.87 48.26 44.19 42.36 38.19 37.47 37.45 38.55 45.09 44.40 44.25 44.74 45.20 45.99 46.58 47.21 47.78 48.30 48.78 49.67 48.52 48.50 49.83 50.30 50.27 50.63 50.16 49.43 49.20 48.61 42.03 43.39
53.99 45.65 46.84 53.13 54.46 53.81 52.79 51.69 50.58 50.03 49.25 48.39 46.38 45.04 45.81 44.70 44.75 45.10 45.43 45.37 44.91 44.31 44.39 44.33 45.06 46.08 46.61 47.06 47.73 48.41 48.84 48.47 48.64 48.87 49.18 49.58 49.65 49.36 48.27 47.98 47.71 46.85 46.32
54.03 54.17 44.94 54.25 53.50 53.09 51.60 50.88 50.52 49.91 49.06 47.89 45.63 41.64 31.74 44.89 44.77 45.10 45.00 44.43 43.42 43.21 43.17 43.69 43.72 44.66 45.81 46.40 47.05 47.45 47.79 48.18 48.31 48.24 48.49 48.66 48.72 47.56 47.72 47.29 46.51 45.80 44.81
53.40 53.46 52.64 52.49 52.41 51.62 51.10 51.38 51.16 50.37 49.75 48.68 47.77 44.10 34.24 45.62 45.57 45.54 45.14 43.80 42.69 42.43 42.58 42.66 42.65 43.33 44.24 44.69 44.76 45.64 46.58 46.94 47.27 47.17 47.71 47.69 46.82 46.16 45.93 45.33 44.78 44.35 43.94
53.63 52.52 51.87 51.92 51.39 45.82 51.36 51.01 50.44 50.07 49.39 49.22 48.96 47.82 45.79 45.44 45.44 45.71 45.20 43.47 42.53 42.22 42.27 42.40 42.40 42.85 44.19 44.49 44.72 44.70 44.67 44.92 45.33 46.43 46.68 46.14 45.48 44.81 44.88 44.12 43.66 43.22 42.76
53.46 53.02 51.80 51.72 51.41 51.75 51.43 50.40 48.96 42.49 46.96 47.19 47.09 46.27 45.82 45.51 45.64 45.68 45.56 42.78 42.32 41.90 42.12 42.13 42.21 42.28 43.07 43.71 44.51 45.01 44.20 42.90 45.60 46.72 46.63 45.51 44.76 43.81 44.22 43.61 43.28 42.90 42.58
55.34 54.03 52.91 52.52 51.94 51.95 51.36 50.87 49.39 48.54 47.29 46.46 45.98 46.01 46.25 46.18 46.04 46.16 46.44 42.89 41.92 41.44 41.28 41.73 42.03 42.24 42.55 42.51 42.21 42.10 35.31 31.64 40.17 34.05 46.07 45.62 44.59 44.19 43.43 43.05 42.63 42.47 42.14
51.02 52.43 52.47 52.83 52.13 51.69 51.48 50.82 50.00 49.22 47.37 46.47 46.07 46.16 46.12 45.97 46.27 46.62 46.13 42.79 41.43 41.00 41.00 41.42 41.59 41.68 42.09 42.04 38.74 32.61 31.43 31.81 37.64 32.46 44.32 44.99 43.90 42.81 43.12 42.53 42.07 41.75 41.61
MSLP
1025.49 1025.54 1025.41 1025.31 1025.12 1024.75 1024.38 1024.01 1023.43 1022.95 1022.47 1022.18 1022.05 1021.95 1021.80 1021.66 1021.60 1021.80 1021.80 1021.65 1021.49 1021.42 1021.25 1021.17 1020.83 1020.73 1020.63 1020.66 1020.96 1020.81 1020.49 1020.64 1020.78 1020.47 1020.54 1020.35 1020.38 1020.22 1020.10 1020.04 1019.82 1019.42 1019.13
1026.04 1025.95 1025.86 1025.63 1025.32 1024.88 1024.45 1024.28 1023.67 1023.19 1023.02 1022.98 1022.81 1022.53 1022.49 1022.38 1022.26 1022.18 1022.15 1021.96 1021.79 1021.61 1021.03 1020.79 1020.67 1020.66 1020.61 1020.76 1020.59 1020.64 1020.45 1020.49 1020.90 1020.55 1020.33 1020.26 1020.31 1020.20 1020.13 1019.86 1019.58 1019.11 1018.66
1026.45 1026.24 1026.07 1025.83 1025.40 1025.06 1024.88 1024.53 1024.21 1023.81 1023.55 1023.18 1022.94 1022.90 1022.86 1022.61 1022.44 1022.37 1022.32 1022.12 1021.95 1021.55 1021.30 1021.02 1020.92 1020.85 1020.72 1020.63 1020.59 1020.43 1020.65 1020.88 1020.91 1020.69 1020.27 1020.21 1020.25 1020.21 1020.03 1019.63 1019.22 1018.80 1018.34
1026.69 1026.44 1026.22 1026.04 1025.72 1025.35 1025.06 1024.71 1024.37 1024.21 1023.92 1023.56 1023.41 1023.15 1022.72 1022.51 1022.42 1022.28 1022.08 1021.91 1021.69 1021.62 1021.56 1021.28 1021.09 1020.88 1020.72 1020.58 1020.39 1020.28 1020.78 1020.83 1020.59 1020.41 1020.15 1020.05 1020.11 1020.19 1020.05 1019.54 1018.66 1018.30 1018.01
1026.83 1026.36 1026.42 1026.34 1025.94 1025.61 1025.17 1024.91 1024.51 1024.11 1024.09 1023.93 1023.58 1023.03 1022.76 1022.73 1022.93 1022.67 1022.38 1021.92 1021.66 1021.41 1021.38 1021.27 1021.15 1021.15 1021.17 1021.02 1020.79 1020.67 1020.50 1020.50 1020.46 1020.27 1020.05 1020.12 1020.08 1020.13 1019.84 1019.28 1018.87 1018.28 1017.51
1026.69 1026.75 1026.73 1026.34 1025.97 1025.63 1025.36 1025.09 1024.88 1024.64 1024.35 1024.09 1023.82 1023.59 1023.51 1023.35 1023.36 1022.89 1022.40 1022.04 1021.84 1021.70 1021.53 1021.43 1021.27 1021.25 1021.22 1021.28 1021.10 1020.78 1020.74 1020.59 1020.42 1020.21 1020.11 1019.68 1019.80 1019.72 1019.60 1019.25 1018.85 1018.16 1017.39
1026.99 1027.14 1026.80 1026.35 1026.21 1025.89 1025.51 1025.14 1024.93 1024.84 1024.44 1024.30 1024.18 1023.97 1023.64 1023.49 1023.42 1023.09 1022.72 1022.33 1022.26 1022.26 1022.05 1021.77 1021.71 1021.71 1021.53 1021.41 1021.29 1021.11 1020.96 1020.85 1020.63 1020.11 1019.89 1019.73 1019.57 1019.66 1019.54 1019.18 1018.92 1018.51 1017.76
1027.48 1027.33 1027.02 1026.58 1026.50 1026.22 1025.86 1025.59 1025.32 1025.08 1024.87 1024.62 1024.32 1024.12 1023.95 1023.88 1023.66 1023.38 1023.00 1022.69 1022.57 1022.48 1022.38 1022.24 1022.11 1021.99 1021.88 1021.59 1021.42 1021.23 1020.90 1020.75 1020.60 1020.20 1019.96 1019.86 1019.72 1019.66 1019.58 1019.51 1019.21 1018.49 1017.20
1027.76 1027.58 1027.43 1026.96 1026.77 1026.38 1026.23 1025.95 1025.66 1025.34 1025.09 1024.86 1024.69 1024.48 1024.28 1024.11 1023.90 1023.58 1023.17 1022.99 1022.81 1022.75 1022.67 1022.57 1022.33 1022.36 1022.26 1021.74 1021.23 1020.98 1020.72 1020.55 1020.70 1020.71 1020.54 1020.39 1020.29 1020.22 1020.10 1019.38 1018.24 1017.84 1016.72
1028.22 1027.96 1027.71 1027.40 1027.00 1026.57 1026.47 1026.29 1025.92 1025.57 1025.35 1025.11 1024.85 1024.63 1024.50 1024.24 1024.18 1023.83 1023.32 1023.18 1022.90 1022.94 1022.89 1022.77 1022.73 1022.72 1022.48 1022.04 1021.52 1021.06 1020.70 1020.63 1020.21 1019.91 1019.81 1019.77 1019.94 1019.34 1019.77 1019.56 1019.16 1018.07 1017.20
1028.39 1028.14 1027.84 1027.44 1027.17 1026.87 1026.68 1026.31 1025.93 1025.60 1025.35 1025.13 1024.83 1024.72 1024.51 1024.50 1024.27 1024.08 1023.59 1022.99 1022.68 1022.50 1022.87 1022.48 1022.54 1022.76 1022.55 1022.24 1021.87 1021.52 1021.43 1021.20 1020.33 1019.82 1019.54 1019.30 1019.04 1018.70 1018.25 1018.28 1018.31 1018.17 1017.32
1028.31 1028.07 1027.85 1027.53 1027.18 1027.01 1026.82 1026.49 1026.05 1025.71 1025.25 1025.06 1024.90 1024.69 1024.53 1024.20 1024.32 1024.17 1024.07 1023.71 1023.22 1022.88 1022.72 1022.69 1022.69 1022.81 1022.53 1022.24 1021.97 1021.80 1021.73 1021.23 1019.95 1019.58 1019.10 1018.54 1018.65 1018.01 1017.73 1017.62 1017.74 1017.63 1017.29
1028.36 1028.03 1027.84 1027.58 1027.38 1027.21 1026.84 1026.49 1025.94 1025.78 1025.64 1025.39 1025.04 1024.59 1024.21 1024.03 1023.49 1023.79 1023.69 1023.76 1023.44 1022.94 1022.97 1023.15 1022.97 1022.76 1022.42 1021.92 1021.94 1021.77 1021.56 1020.44 1019.62 1018.84 1018.52 1018.25 1018.13 1017.84 1017.94 1017.35 1017.03 1016.99 1016.80
1028.25 1027.99 1028.00 1027.69 1027.53 1027.46 1027.02 1027.06 1026.67 1026.18 1025.88 1026.03 1025.66 1025.40 1025.07 1024.62 1024.44 1023.96 1023.57 1023.09 1022.85 1022.96 1022.60 1022.49 1022.53 1022.31 1022.17 1021.90 1021.31 1021.04 1020.74 1020.30 1019.90 1019.26 1018.70 1018.21 1018.08 1017.43 1017.03 1016.94 1016.39 1015.95 1015.55
1028.52 1028.17 1027.80 1027.57 1027.25 1027.22 1027.21 1027.42 1027.22 1027.21 1027.40 1027.26 1026.65 1026.20 1025.90 1025.68 1025.93 1025.89 1025.15 1024.45 1024.03 1023.91 1023.06 1022.48 1022.11 1021.91 1021.59 1021.39 1021.12 1020.95 1020.64 1020.18 1019.68 1019.26 1018.70 1018.13 1017.63 1017.23 1016.93 1016.89 1016.42 1015.93 1015.35
1028.68 1028.39 1028.39 1028.03 1027.36 1027.30 1027.19 1027.08 1028.19 1028.30 1028.06 1028.12 1027.83 1027.46 1026.43 1027.09 1026.81 1026.30 1025.58 1025.20 1024.76 1024.14 1023.27 1022.87 1022.67 1022.43 1022.21 1021.97 1021.58 1021.11 1020.79 1020.50 1020.18 1019.55 1018.96 1018.41 1017.85 1017.50 1017.27 1016.80 1016.47 1016.10 1015.64
1029.06 1028.89 1028.47 1028.13 1027.54 1027.53 1027.28 1027.13 1027.28 1028.10 1028.02 1028.01 1028.00 1027.90 1027.79 1027.81 1027.08 1026.64 1026.16 1025.67 1025.17 1024.10 1023.66 1023.65 1023.49 1023.28 1023.06 1022.71 1022.33 1021.90 1021.47 1021.25 1020.70 1020.02 1019.47 1019.04 1018.52 1017.97 1017.77 1017.28 1016.97 1016.55 1016.04
1029.03 1029.06 1028.18 1027.93 1027.68 1027.31 1027.15 1026.97 1026.92 1027.14 1027.24 1027.44 1027.89 1027.93 1028.01 1027.74 1027.32 1026.82 1026.28 1025.06 1024.95 1024.74 1024.63 1024.49 1024.28 1024.04 1023.77 1023.43 1023.04 1022.60 1022.10 1021.59 1021.06 1020.51 1020.01 1019.59 1019.15 1018.53 1018.09 1017.75 1017.42 1017.31 1016.76
1028.97 1028.57 1028.40 1028.07 1027.73 1027.55 1027.16 1027.04 1027.07 1027.26 1027.43 1027.49 1027.39 1027.37 1027.64 1027.77 1027.52 1027.21 1026.61 1025.88 1025.66 1025.53 1025.43 1025.18 1025.04 1024.72 1024.40 1024.03 1023.74 1023.36 1022.99 1022.41 1021.93 1021.22 1020.65 1020.13 1019.67 1019.03 1018.58 1018.29 1017.97 1017.74 1017.37
1028.89 1028.82 1028.61 1028.07 1027.48 1027.23 1027.15 1027.08 1027.22 1027.39 1027.52 1027.67 1027.83 1027.99 1027.71 1027.22 1027.08 1026.99 1026.90 1026.72 1026.46 1026.31 1026.13 1025.82 1025.60 1025.30 1024.94 1024.62 1024.22 1023.80 1023.20 1022.62 1022.20 1021.64 1021.17 1020.65 1020.19 1019.65 1019.16 1018.80 1018.43 1018.02 1017.71
1028.92 1028.58 1028.50 1027.71 1027.49 1027.44 1027.44 1027.51 1027.60 1027.60 1027.70 1027.96 1028.41 1028.85 1028.59 1027.91 1027.81 1027.73 1027.58 1027.46 1027.31 1027.09 1026.91 1026.53 1026.02 1025.74 1025.43 1025.10 1024.72 1024.25 1023.64 1023.07 1022.68 1022.25 1021.66 1021.09 1020.61 1020.10 1019.79 1019.40 1019.00 1018.65 1018.47
1028.79 1028.38 1028.11 1027.86 1027.87 1027.81 1027.90 1027.91 1027.87 1027.84 1027.90 1028.04 1028.43 1028.82 1028.82 1028.44 1028.31 1028.19 1028.12 1028.04 1027.88 1027.74 1027.56 1027.18 1026.58 1026.33 1026.09 1025.79 1025.46 1024.85 1024.22 1023.73 1023.41 1023.02 1022.31 1021.62 1021.16 1020.74 1020.34 1019.94 1019.57 1019.29 1019.10
1028.67 1028.41 1028.17 1028.15 1028.19 1028.46 1028.20 1028.15 1028.12 1028.16 1028.24 1028.39 1028.47 1028.56 1028.69 1028.72 1028.67 1028.60 1028.53 1028.49 1028.37 1028.22 1028.02 1027.71 1027.26 1026.84 1026.70 1026.41 1026.05 1025.58 1025.05 1024.74 1024.37 1023.78 1022.88 1022.10 1021.68 1021.41 1020.95 1020.58 1020.32 1019.97 1019.87
1028.67 1028.43 1028.27 1028.24 1028.27 1028.27 1028.34 1028.40 1028.57 1028.88 1028.68 1028.68 1028.81 1028.88 1028.93 1029.00 1028.98 1028.98 1028.87 1028.85 1028.70 1028.56 1028.40 1028.17 1027.99 1027.73 1027.35 1026.86 1026.40 1025.94 1025.81 1025.71 1024.93 1023.93 1023.30 1022.72 1022.31 1021.97 1021.62 1021.29 1020.93 1020.76 1020.37
1028.47 1028.42 1028.26 1028.26 1028.26 1028.37 1028.54 1028.60 1028.69 1028.85 1028.94 1029.06 1029.11 1029.16 1029.19 1029.19 1029.11 1029.11 1029.13 1029.12 1029.05 1028.86 1028.79 1028.63 1028.44 1028.12 1027.78 1027.50 1027.24 1026.90 1026.99 1026.62 1025.71 1025.09 1023.70 1023.29 1023.01 1022.66 1022.40 1022.02 1021.73 1021.31 1021.09
1028.85 1028.72 1028.58 1028.31 1028.33 1028.42 1028.52 1028.64 1028.81 1028.98 1029.12 1029.30 1029.43 1029.48 1029.44 1029.34 1029.27 1029.25 1029.28 1029.36 1029.28 1029.23 1029.15 1028.95 1028.77 1028.53 1028.19 1027.85 1028.03 1027.90 1027.33 1026.75 1026.03 1025.47 1024.29 1023.72 1023.48 1023.39 1022.94 1022.66 1022.37 1021.96 1021.70
Wind_Speed
10 9 9 9 9 8 7 8 9 9 7 8 8 8 8 8 8 6 6 5 5 4 1 5 6 5 3 2 3 3 5 5 6 3 2 3 2 4 4 4 3 3 2
9 8 9 6 6 8 8 8 9 7 7 7 7 8 7 7 7 6 5 4 4 4 4 3 3 0 0 1 2 5 5 5 4 7 2 2 2 3 3 3 2 3 4
7 8 8 10 10 11 10 7 6 8 8 7 7 6 5 4 5 4 5 4 4 5 6 4 4 3 3 3 4 4 4 4 3 4 3 1 1 2 2 2 3 5 3
7 7 8 10 10 9 8 8 7 4 6 6 6 5 6 8 7 8 7 6 5 3 3 3 2 3 5 5 5 6 3 4 4 3 2 1 2 1 1 3 4 3 6
6 8 10 8 8 7 9 8 8 6 3 6 7 6 7 7 7 7 5 5 3 1 1 2 3 6 7 7 6 4 4 1 1 3 2 1 2 2 2 2 4 6 6
9 11 8 9 8 9 6 8 7 7 8 7 7 7 6 5 10 8 7 5 5 5 4 4 3 4 4 5 6 5 5 2 2 1 2 4 5 3 1 3 4 6 6
9 10 10 10 9 9 9 7 7 7 6 7 7 6 7 7 10 8 7 5 5 4 4 4 4 4 3 2 5 6 7 7 7 4 3 5 5 4 3 4 5 6 7
10 10 10 9 7 8 9 9 9 7 7 6 7 8 7 7 8 6 4 4 4 5 4 3 3 4 5 3 3 3 4 4 5 3 2 2 1 2 4 5 7 8 6
10 10 10 10 8 10 9 8 6 6 5 5 3 4 4 5 9 7 4 3 5 5 5 7 5 4 6 6 5 5 5 5 4 1 3 4 4 5 6 6 4 7 7
9 9 8 8 9 9 7 7 6 5 5 4 6 6 7 6 10 8 4 3 4 4 6 5 8 7 6 7 5 5 6 5 4 3 1 5 7 5 7 6 4 5 6
7 6 7 8 7 7 7 5 5 6 6 7 7 7 7 6 7 8 7 7 5 6 3 4 4 5 4 3 4 4 4 6 3 4 3 3 4 5 5 5 6 6 6
7 5 6 7 6 6 7 6 7 7 8 5 3 4 3 4 6 7 7 7 4 6 5 4 4 4 3 4 5 1 4 8 4 3 4 3 4 4 4 5 7 8 8
6 7 7 7 7 8 8 7 6 6 6 6 6 7 7 7 6 7 5 4 5 4 4 5 6 7 9 8 4 6 8 4 4 4 4 4 4 5 5 5 5 6 9
8 9 7 7 6 6 5 4 6 8 7 7 7 7 6 6 6 7 5 6 5 4 2 4 2 1 2 3 4 2 4 5 5 5 6 5 4 5 5 5 6 6 7
8 7 8 7 7 7 5 4 6 6 7 7 6 6 7 8 9 8 5 6 5 7 4 5 7 6 6 6 6 7 7 7 7 7 5 5 5 6 7 7 7 7 6
7 6 5 3 5 4 5 6 4 5 7 7 7 4 6 6 8 9 13 12 10 10 4 8 7 8 8 8 8 8 8 8 8 7 7 5 6 6 8 8 8 7 8
6 3 1 3 4 5 5 5 4 5 6 10 9 11 11 7 11 10 9 6 13 6 8 8 7 8 8 7 7 8 8 8 8 8 8 7 7 7 7 8 8 9 9
5 3 3 4 4 4 5 5 4 5 6 6 10 10 12 12 14 15 14 4 8 10 8 7 7 7 7 7 7 7 8 8 8 8 8 8 8 7 8 8 8 9 9
4 4 4 4 3 3 4 4 4 5 5 6 6 7 9 7 7 9 10 9 8 8 7 7 7 7 7 6 6 6 7 8 8 8 8 8 8 8 8 8 8 7 9
4 4 4 4 3 4 4 4 4 4 5 6 7 7 7 6 8 9 9 8 7 7 7 7 6 6 6 7 6 6 7 8 8 8 8 8 9 8 8 9 8 9 10
4 4 4 4 4 4 4 4 4 4 4 5 5 5 6 7 7 8 7 7 7 7 7 7 7 6 7 7 7 7 7 8 8 8 8 8 8 8 8 8 9 9 9
5 5 4 4 4 3 4 3 3 3 4 4 3 4 5 6 6 6 7 7 7 6 6 6 6 6 7 7 8 8 8 8 8 9 9 9 8 8 8 8 9 8 9
4 4 4 3 4 2 2 3 4 4 4 4 3 4 4 5 5 6 6 6 6 6 6 6 7 7 7 6 7 7 8 8 7 8 9 8 8 9 8 8 9 9 9
3 3 3 3 3 2 2 3 4 4 4 4 4 4 4 4 5 5 6 5 5 6 6 6 7 10 9 8 7 7 7 7 7 7 10 8 8 8 8 9 8 10 9
3 3 2 1 1 2 2 2 3 3 3 4 4 3 3 3 4 5 5 5 5 5 6 6 7 9 10 12 12 11 10 8 7 9 8 9 9 9 9 8 10 8 10
3 2 4 1 1 1 1 1 1 2 3 3 3 3 3 3 3 4 4 5 5 5 6 5 7 10 11 10 12 11 9 9 9 9 8 8 8 9 9 10 12 8 10
Wind_Direction
356 2 1 360 350 344 344 342 344 332 349 2 17 32 25 33 36 28 17 25 43 25 333 234 240 239 261 175 207 262 305 295 274 288 238 235 253 291 312 338 323 319 349
6 8 9 349 342 343 346 358 346 357 28 36 34 40 28 19 17 18 4 7 24 354 350 349 337 303 343 289 299 292 301 302 271 296 264 253 246 291 306 314 337 319 327
12 7 359 1 350 359 351 14 33 1 17 18 26 33 14 1 8 352 334 331 338 336 343 338 359 342 322 313 285 285 288 284 251 259 286 253 129 311 330 324 325 323 304
8 357 6 10 4 5 1 7 9 15 10 13 19 5 2 0 353 340 327 323 314 321 333 342 314 308 304 307 290 281 290 266 282 280 284 314 61 331 315 318 331 326 322
356 7 19 357 1 355 5 5 8 20 26 7 10 2 12 15 1 343 336 354 350 354 28 336 323 357 343 331 331 338 290 290 296 323 358 12 32 5 1 344 314 318 316
11 23 7 3 355 353 357 6 21 19 16 12 23 13 19 8 359 27 359 36 24 15 360 354 336 349 15 354 351 34 43 16 10 324 346 18 42 48 54 341 330 346 348
16 19 5 11 357 3 14 27 23 22 25 38 27 17 26 11 2 11 5 21 28 19 11 21 19 5 347 38 68 59 61 43 26 350 26 34 53 38 351 331 339 322 317
17 14 8 14 9 8 22 18 18 11 17 21 22 20 19 20 3 3 11 40 33 33 30 24 39 53 45 67 72 67 51 43 26 28 43 54 30 329 317 330 316 303 266
10 13 16 14 19 22 20 11 3 6 15 20 15 10 13 29 15 18 27 37 65 54 48 46 52 57 16 354 58 67 68 56 118 3 325 303 279 272 298 310 337 332 360
10 7 12 12 14 24 17 9 2 13 20 25 37 27 24 29 21 9 36 68 78 60 53 53 46 33 7 0 45 53 62 36 12 9 233 228 236 244 228 242 275 300 329
338 354 6 13 14 17 22 6 13 37 43 41 50 42 52 32 37 17 5 65 67 82 65 65 61 5 11 25 339 39 19 324 315 296 300 287 279 264 258 229 254 262 295
352 356 9 11 18 27 32 28 37 37 49 33 37 52 38 33 36 44 32 36 29 66 60 58 67 345 324 320 286 342 281 283 313 321 324 329 312 309 294 275 269 259 262
17 41 31 42 45 51 58 49 44 42 30 25 24 24 23 10 13 16 9 22 34 37 24 4 305 287 272 254 239 289 269 322 330 340 9 356 342 329 311 291 267 264 263
56 63 63 59 52 55 59 36 25 19 13 21 15 16 7 11 9 7 16 21 45 76 32 63 31 292 241 284 316 340 1 351 337 333 325 329 336 334 346 349 321 327 308
66 71 66 55 40 40 40 18 16 43 3 358 5 11 14 27 14 339 351 18 19 31 358 43 37 26 25 21 19 18 12 0 2 352 340 336 360 5 16 4 356 348 337
68 63 44 4 360 53 23 65 62 31 56 56 42 360 73 48 351 349 35 27 13 355 48 37 26 22 20 13 10 8 16 9 5 360 2 360 6 9 358 10 9 2 4
45 35 41 34 13 2 17 32 67 109 102 64 56 56 47 28 22 16 11 37 24 14 50 38 27 20 14 10 8 8 9 8 353 9 9 4 352 352 351 0 2 2 3
22 25 11 38 21 19 16 33 51 45 40 44 61 47 33 23 26 19 2 0 44 42 38 30 23 15 10 6 6 7 5 7 7 6 11 10 7 356 358 359 5 1 348
8 19 354 5 19 2 10 53 67 59 50 43 46 49 31 16 27 31 12 39 36 33 24 24 15 10 8 3 1 2 355 3 357 359 7 7 6 359 6 3 4 7 340
4 12 334 336 349 10 46 72 76 68 58 50 44 25 10 25 33 33 35 31 30 27 18 15 9 4 0 360 357 355 357 7 8 8 7 5 2 4 4 3 5 358 1
330 329 317 307 9 47 62 60 59 55 58 59 61 45 321 25 32 31 28 27 21 17 12 4 5 2 1 1 359 358 358 3 6 2 3 4 4 6 6 4 5 6 12
338 341 1 32 46 62 59 55 48 43 41 50 68 75 308 37 32 30 26 23 18 17 11 0 2 6 1 358 356 351 352 1 6 2 357 360 5 9 5 9 9 11 17
346 360 30 58 57 86 68 55 51 42 40 35 27 31 27 32 30 27 24 19 17 16 15 13 8 10 8 358 356 351 353 356 351 345 346 358 12 2 10 11 13 10 7
357 6 23 37 38 41 52 63 78 52 21 30 33 32 31 28 27 28 20 19 16 21 19 20 19 18 8 5 5 2 9 350 329 348 352 5 12 8 14 13 13 14 9
332 352 333 19 43 64 118 67 61 41 31 23 29 32 33 20 21 24 21 22 20 18 26 20 19 15 19 17 14 8 0 322 341 316 5 12 16 14 17 18 8 14 13
299 307 304 249 195 165 157 140 88 44 33 31 27 29 19 18 24 25 25 27 23 28 20 23 20 18 16 21 15 351 339 347 355 336 345 22 22 23 8 19 14 14 17